This is the latest recevied weather packets stored in our database for station/object WI0K. If no packets are shown the sender has not sent any weather packets the latest 10 day(s).
| Time | Temp. | Humidity | Pressure | Rain* | Wind** | Luminosity | Snow |
|---|---|---|---|---|---|---|---|
| 1778196039 | 20° C | 26% | 1013.2 hPa | 0 mm | - | 147 W/m² | - |
| 1778195739 | 20° C | 26% | 1013.2 hPa | 0 mm | - | 354 W/m² | - |
| 1778195438 | 20.56° C | 25% | 1013.2 hPa | 0 mm | - | 354 W/m² | - |
| 1778195137 | 21.11° C | 24% | 1013.3 hPa | 0 mm | - | 518 W/m² | - |
| 1778194837 | 21.11° C | 24% | 1013.3 hPa | 0 mm | - | 547 W/m² | - |
| 1778194536 | 20.56° C | 24% | 1013.3 hPa | 0 mm | - | 525 W/m² | - |
| 1778194235 | 20.56° C | 24% | 1013.2 hPa | 0 mm | - | 544 W/m² | - |
| 1778193935 | 20.56° C | 24% | 1013.3 hPa | 0 mm | - | 556 W/m² | - |
| 1778193634 | 20° C | 25% | 1013.3 hPa | 0 mm | - | 579 W/m² | - |
| 1778193334 | 20° C | 25% | 1013.3 hPa | 0 mm | - | 596 W/m² | - |
| 1778193033 | 20.56° C | 26% | 1013.2 hPa | 0 mm | - | 618 W/m² | - |
| 1778192732 | 20.56° C | 24% | 1013.3 hPa | 0 mm | - | 623 W/m² | - |
| 1778192432 | 20° C | 25% | 1013.3 hPa | 0 mm | - | 641 W/m² | - |
| 1778192131 | 20° C | 25% | 1013.5 hPa | 0 mm | - | 667 W/m² | - |
| 1778191831 | 20° C | 26% | 1013.5 hPa | 0 mm | - | 613 W/m² | - |
| 1778191530 | 20° C | 26% | 1013.6 hPa | 0 mm | - | 687 W/m² | - |
| 1778191229 | 20.56° C | 25% | 1013.7 hPa | 0 mm | - | 726 W/m² | - |
| 1778190929 | 20.56° C | 24% | 1013.7 hPa | 0 mm | - | 787 W/m² | - |
| 1778190628 | 20.56° C | 26% | 1013.8 hPa | 0 mm | - | 813 W/m² | - |
| 1778190328 | 20° C | 26% | 1014.1 hPa | 0 mm | - | 715 W/m² | - |
| 1778190027 | 20° C | 25% | 1014.1 hPa | 0 mm | - | 809 W/m² | - |
| 1778189726 | 20.56° C | 26% | 1014.2 hPa | 0 mm | - | 820 W/m² | - |
| 1778189426 | 20.56° C | 25% | 1014.2 hPa | 0 mm | - | 927 W/m² | - |
| 1778189125 | 20.56° C | 25% | 1014.2 hPa | 0 mm | - | 848 W/m² | - |
| 1778188825 | 20° C | 26% | 1014.3 hPa | 0 mm | - | 862 W/m² | - |
* Rain latest hour (hover to see other rain measurements)
** Current wind speed in m/s (hover to see current wind gust speed)